Location: Axtheid
(49.6213°N, 11.8205°E)
Time: 13:15:20
(UTC+00:00)

ATLAS 2AS CENTAUR R/B - Pass Details

Date: 24 January 2021
Orbit: 947 x 1265 km, 63.7° (Epoch: 13 February)

Event Time Altitude Azimuth Distance (km) Brightness Sun altitude
Rises 18:55:52 0° 294° (WNW) 4,213 6.9 -29.0°
Reaches altitude 10° 18:59:15 10° 306° (NW) 3,223 5.9 -29.5°
Maximum altitude 19:05:46 28° 3° (N) 2,093 4.2 -30.6°
Enters shadow 19:06:55 27° 18° (NNE) 2,122 4.1 -30.8°
